CW6623 Weather Reports


time (UTC)temp
C
wind
direction
speed
KPH
gust
KPH
rain 1hr
cm
rain 24hr
cm
rain mn
cm
humidity
%
barometer
mb
20260507023324 18 360 0.0 1.6 0.00 0.00 0.00 63 1014.4
20260507022324 19 360 3.2 6.4 0.00 0.00 0.00 62 1014.3
20260507021324 19 360 0.0 0.0 0.00 0.00 0.00 62 1014.4
20260507020323 20 360 0.0 0.0 0.00 0.00 0.00 61 1014.4
20260507015319 20 360 0.0 8.0 0.00 0.00 0.00 60 1014.5
20260507014319 20 360 1.6 3.2 0.00 0.00 0.00 60 1014.5
20260507013320 20 360 3.2 8.0 0.00 0.00 0.00 60 1014.5
20260507012344 20 10 3.2 8.0 0.00 0.00 0.00 59 1014.4
20260507011351 21 28 1.6 4.8 0.00 0.00 0.00 58 1014.4
20260507010328 21 22 3.2 9.7 0.00 0.00 0.00 58 1014.4
20260507005324 21 24 1.6 6.4 0.00 0.00 0.00 58 1014.5
20260507004356 21 39 3.2 8.0 0.00 0.00 0.00 57 1014.3
20260507003400 21 266 4.8 6.4 0.00 0.00 0.00 57 1014.3
20260507002336 22 267 1.6 8.0 0.00 0.00 0.00 56 1014.3
20260507001334 22 244 3.2 16.1 0.00 0.00 0.00 54 1014.4
20260507000336 22 40 8.0 17.7 0.00 0.00 0.00 51 1014.4
20260506235333 23 26 6.4 16.1 0.00 0.00 0.00 50 1014.3
20260506234331 23 20 11.3 17.7 0.00 0.00 0.00 50 1014.4
20260506233332 23 327 3.2 14.5 0.00 0.00 0.00 49 1014.4
20260506232331 23 9 4.8 11.3 0.00 0.00 0.00 48 1014.4
20260506231357 23 5 9.7 17.7 0.00 0.00 0.00 48 1014.8
20260506230338 23 24 6.4 16.1 0.00 0.00 0.00 48 1014.8
20260506225317 24 20 3.2 9.7 0.00 0.00 0.00 46 1014.8
20260506224316 23 37 3.2 12.9 0.00 0.00 0.00 45 1014.7
20260506223329 23 11 4.8 14.5 0.00 0.00 0.00 45 1014.7
20260506222328 23 12 6.4 14.5 0.00 0.00 0.00 47 1015.1
20260506221354 23 45 6.4 14.5 0.00 0.00 0.00 47 1015.2
20260506220330 23 20 3.2 14.5 0.00 0.00 0.00 49 1015.2
20260506215340 23 9 3.2 14.5 0.00 0.00 0.00 48 1015.3
20260506214347 23 360 4.8 11.3 0.00 0.00 0.00 48 1015.5
20260506213320 22 23 9.7 16.1 0.00 0.00 0.00 49 1015.5
20260506212322 22 360 6.4 12.9 0.00 0.00 0.00 49 1015.8
20260506211345 23 360 3.2 11.3 0.00 0.00 0.00 46 1015.8
20260506210332 23 360 4.8 11.3 0.00 0.00 0.00 47 1015.8
20260506205341 22 360 3.2 17.7 0.00 0.00 0.00 48 1015.9
20260506204319 21 346 9.7 14.5 0.00 0.00 0.00 52 1016.1
20260506203325 22 113 3.2 8.0 0.00 0.00 0.00 50 1016.1
20260506202334 22 23 4.8 11.3 0.00 0.00 0.00 50 1016.3
20260506201341 22 360 4.8 8.0 0.00 0.00 0.00 53 1016.4
20260506200338 21 360 9.7 17.7 0.00 0.00 0.00 56 1016.3
20260506195335 20 360 3.2 17.7 0.00 0.00 0.00 54 1016.4
20260506194328 20 360 0.0 11.3 0.00 0.00 0.00 58 1016.4
20260506193334 20 360 3.2 11.3 0.00 0.00 0.00 53 1016.5
20260506192336 20 360 8.0 11.3 0.00 0.00 0.00 57 1016.6
20260506191334 20 55 4.8 12.9 0.00 0.00 0.00 56 1016.8
20260506190354 20 5 4.8 9.7 0.00 0.00 0.00 60 1016.7
20260506185338 18 360 1.6 11.3 0.00 0.00 0.00 60 1016.8
20260506184337 18 34 3.2 8.0 0.00 0.00 0.00 62 1016.9
20260506183334 18 73 3.2 9.7 0.00 0.00 0.00 62 1016.9
20260506182336 17 31 1.6 8.0 0.00 0.00 0.00 65 1016.9
20260506181341 17 360 1.6 11.3 0.00 0.00 0.00 65 1016.9
20260506180321 16 5 3.2 11.3 0.00 0.00 0.00 67 1016.9
20260506175344 16 5 4.8 9.7 0.00 0.00 0.00 69 1016.9
20260506174322 16 32 3.2 8.0 0.00 0.00 0.00 70 1017.0
20260506173405 15 360 3.2 6.4 0.00 0.00 0.00 72 1016.9
20260506172323 15 20 3.2 4.8 0.00 0.00 0.00 74 1017.1
20260506171338 14 279 0.0 3.2 0.00 0.00 0.00 74 1017.2
20260506170334 14 17 3.2 9.7 0.00 0.00 0.00 75 1017.2
20260506165332 13 24 1.6 8.0 0.00 0.00 0.00 76 1017.2
20260506164331 13 12 0.0 6.4 0.00 0.00 0.00 78 1017.2
20260506163327 13 28 3.2 6.4 0.00 0.00 0.00 79 1017.2
20260506161328 13 25 0.0 0.0 0.00 0.00 0.00 79 1017.2
20260506160325 12 26 0.0 0.0 0.00 0.00 0.00 80 1017.1
20260506155323 12 31 0.0 0.0 0.00 0.00 0.00 81 1017.1
20260506154320 12 32 0.0 0.0 0.00 0.00 0.00 81 1017.0
20260506153345 12 31 0.0 0.0 0.00 0.00 0.00 81 1017.0
20260506152320 12 24 0.0 0.0 0.00 0.00 0.00 83 1017.0
20260506151347 12 24 0.0 0.0 0.00 0.00 0.00 83 1017.0
20260506150322 12 24 0.0 0.0 0.00 0.00 0.00 83 1017.0
20260506145406 12 24 0.0 0.0 0.00 0.00 0.00 83 1016.9
20260506144343 12 24 0.0 0.0 0.00 0.00 0.00 84 1016.9
20260506143342 12 24 0.0 0.0 0.00 0.00 0.00 85 1016.9
20260506142338 12 24 0.0 0.0 0.00 0.00 0.00 85 1016.8
20260506141339 11 24 0.0 0.0 0.00 0.00 0.00 85 1016.8
20260506140336 12 24 0.0 0.0 0.00 0.00 0.00 86 1016.8
20260506135335 11 24 0.0 0.0 0.00 0.00 0.00 86 1016.4
20260506134332 11 24 0.0 0.0 0.00 0.00 0.00 86 1016.3
20260506133332 11 24 0.0 0.0 0.00 0.00 0.00 86 1016.3
20260506132321 11 24 1.6 6.4 0.00 0.00 0.00 86 1016.1
20260506131345 11 272 0.0 0.0 0.00 0.00 0.00 86 1015.9
20260506130344 11 272 0.0 0.0 0.00 0.00 0.00 86 1015.9
20260506125343 11 272 0.0 0.0 0.00 0.00 0.00 86 1015.8
20260506124340 11 272 0.0 0.0 0.00 0.00 0.00 86 1015.8
20260506123337 11 272 0.0 0.0 0.00 0.00 0.00 86 1015.8
20260506122340 11 272 0.0 0.0 0.00 0.00 0.00 87 1015.8
20260506121346 11 272 0.0 0.0 0.00 0.00 0.00 87 1015.7
20260506120338 11 272 0.0 0.0 0.00 0.00 0.00 87 1015.7
20260506115335 11 272 0.0 0.0 0.00 0.00 0.00 87 1015.7
20260506114336 11 272 0.0 0.0 0.00 0.00 0.00 87 1015.5
20260506113336 11 272 0.0 0.0 0.00 0.00 0.00 87 1015.5
20260506112331 11 272 0.0 0.0 0.00 0.00 0.00 87 1015.6
20260506111334 11 272 0.0 0.0 0.00 0.00 0.00 86 1015.3
20260506110335 11 272 0.0 0.0 0.00 0.00 0.00 85 1015.3
20260506105333 11 272 0.0 0.0 0.00 0.00 0.00 83 1015.3
20260506104333 11 272 0.0 0.0 0.00 0.00 0.00 82 1015.2
20260506103332 12 272 0.0 0.0 0.00 0.00 0.00 81 1015.3
20260506102334 12 272 0.0 0.0 0.00 0.00 0.00 81 1015.3
20260506101330 12 272 0.0 0.0 0.00 0.00 0.00 80 1015.3
20260506100349 12 272 0.0 0.0 0.00 0.00 0.00 80 1015.3
20260506095329 12 275 0.0 0.0 0.00 0.00 0.00 79 1015.3
20260506094328 12 275 0.0 0.0 0.00 0.00 0.00 79 1015.3
20260506093326 12 275 0.0 0.0 0.00 0.00 0.00 79 1015.3
20260506092328 12 275 0.0 0.0 0.00 0.00 0.00 79 1015.3
20260506091327 12 275 0.0 0.0 0.00 0.00 0.00 78 1015.3
20260506090352 12 275 0.0 0.0 0.00 0.00 0.00 78 1015.3
20260506085330 12 274 0.0 0.0 0.00 0.00 0.00 78 1015.3
20260506084327 12 274 0.0 0.0 0.00 0.00 0.00 77 1015.3
20260506083327 12 274 0.0 0.0 0.00 0.00 0.00 77 1015.3
20260506082326 12 274 0.0 0.0 0.00 0.00 0.00 77 1015.3
20260506081327 12 273 0.0 0.0 0.00 0.00 0.00 77 1015.3
20260506080326 12 273 0.0 0.0 0.00 0.00 0.00 76 1015.3
20260506073328 12 275 0.0 4.8 0.00 0.00 0.00 75 1015.2
20260506072353 12 265 1.6 4.8 0.00 0.00 0.00 75 1014.9
20260506071331 12 257 0.0 0.0 0.00 0.00 0.00 75 1014.8
20260506070401 12 252 0.0 8.0 0.00 0.00 0.00 74 1014.8
20260506062333 12 272 0.0 8.0 0.00 0.00 0.00 74 1014.7
20260506061330 12 255 3.2 11.3 0.00 0.00 0.00 74 1014.5
20260506060356 12 360 1.6 9.7 0.00 0.00 0.00 74 1014.5
20260506051329 13 360 1.6 9.7 0.00 0.00 0.00 75 1014.2
20260506050354 13 360 1.6 8.0 0.00 0.00 0.00 75 1014.2
20260506044333 13 360 3.2 8.0 0.00 0.00 0.00 74 1013.8
20260506043337 13 294 0.0 8.0 0.00 0.00 0.00 74 1013.8
20260506042337 13 224 1.6 11.3 0.00 0.00 0.00 74 1013.7
20260506041406 13 230 3.2 12.9 0.00 0.00 0.00 76 1013.6
20260506040343 13 257 1.6 8.0 0.00 0.00 0.00 73 1013.6
20260506035344 13 256 3.2 9.7 0.00 0.00 0.00 73 1013.3
20260506034343 13 253 0.0 8.0 0.00 0.00 0.00 73 1013.2
20260506033341 13 298 1.6 6.4 0.00 0.00 0.00 72 1013.2
20260506032340 13 302 0.0 4.8 0.00 0.00 0.00 72 1013.1
20260506031339 13 318 0.0 4.8 0.00 0.00 0.00 71 1012.8
20260506030333 13 225 1.6 6.4 0.00 0.00 0.00 71 1012.8
20260506025333 13 284 3.2 9.7 0.00 0.00 0.00 71 1012.6
20260506024337 13 261 3.2 9.7 0.00 0.00 0.00 70 1012.5